Regional Weather Roundup
Issued by NWS Charleston, WV

Home | Current Version | Previous Version | Text Only | Print | Product List | Glossary Off
Versions: 1 2 3 4 5 6 7 8 9 10 11 12 13 14 15 16 17 18 19 20 21 22 23 24 25 26 27 28 29 30 31 32 33 34 35 36 37 38 39 40 41 42 43 44 45 46 47 48 49 50

000
ASUS41 KRLX 101610
RWRRLX
West Virginia Regional Weather Roundup
National Weather Service Charleston WV
1100 AM EST WED FEB 10 2016

Note: "fair" indicates few or no clouds below 12,000 feet with no
significant weather and/or obstructions to visibility.

WVZ003-101700-
Northern Panhandle of West Virginia

CITY           SKY/WX    TMP DP  RH WIND       PRES   REMARKS
WHEELING       LGT SNOW  17   9  70 SW14G24   29.84R WCI   3
$$

WVZ009-101700-
Northwest West Virginia

CITY           SKY/WX    TMP DP  RH WIND       PRES   REMARKS
PARKERSBURG    LGT SNOW  17  11  77 W9G20     29.96S WCI   6
$$

WVZ006-101700-
Western West Virginia

CITY           SKY/WX    TMP DP  RH WIND       PRES   REMARKS
HUNTINGTON     FLURRIES  20  10  65 VRB7      30.00R
$$

WVZ015-101700-
West Central West Virginia

CITY           SKY/WX    TMP DP  RH WIND       PRES   REMARKS
CHARLESTON     FLURRIES  20   8  60 W12G22    29.97S WCI   8
$$

WVZ022-031-101700-
North Central West Virginia

CITY           SKY/WX    TMP DP  RH WIND       PRES   REMARKS
CLARKSBURG     FLURRIES  18   8  65 W14       29.89R WCI   4
MORGANTOWN     CLOUDY    18   6  59 SW14G21   29.87R WCI   4
$$

WVZ025-035-042-045-101700-
Southern West Virginia

CITY           SKY/WX    TMP DP  RH WIND       PRES   REMARKS
BECKLEY        LGT SNOW  14   6  70 W14       29.84S WCI  -1
LOGAN          PTSUNNY   18   9  68 W12G18    29.93S WCI   5
BLUEFIELD      LGT SNOW  13   6  74 NW10G21   29.82S WCI   0
LEWISBURG      PTSUNNY   20   7  56 W15       29.84R WCI   6
$$

WVZ047-101700-
Northern Mountains of West Virginia

CITY           SKY/WX    TMP DP  RH WIND       PRES   REMARKS
ELKINS         LGT SNOW  16   8  71 NW5       29.83R WCI   9
$$

WVZ052-101700-
Eastern Panhandle of West Virginia

CITY           SKY/WX    TMP DP  RH WIND       PRES   REMARKS
MARTINSBURG    CLOUDY    31  14  49 W18G29    29.81R
PETERSBURG     CLOUDY    28  10  46 W12G20    29.83S
$$



USA.gov is the U.S. government's official web portal to all federal, state and local government web resources and services.